Location: Newark
(49.4900°N, 20.6656°E)
Time: 17:15:49
(UTC+00:00)

STARLINK-1550 - Pass Details

Date: 24 September 2020
Orbit: 378 x 381 km, 53.0° (Epoch: 30 October)

Event Time Altitude Azimuth Distance (km) Brightness Sun altitude
Exits shadow 01:27:07 16° 61° (ENE) 1,118 6.0 -28.1°
Drops below altitude 10° 01:27:51 10° 66° (ENE) 1,405 6.6 -28.0°
Sets 01:29:56 0° 72° (ENE) 2,259 7.9 -27.8°
